一网星座-0573星 (ONEWEB-0573)

导读 | 豆包AI

ONEWEB-0573是英国OneWeb项目的第二代低轨通信卫星,于2023年1月10日由SpaceX猎鹰9号火箭在卡纳维拉尔角发射升空,属于OneWeb星座组网的40颗卫星之一。 该卫星重约148-200公斤,依靠太阳能供电,运行在1200公里高度近地轨道,依托Ku波段提供高速天基互联网服务,第二代OneWeb卫星后续还将集成导航定位功能,助力全球覆盖的卫星通信星座搭建。

基本信息
目录编号:
55152
目录名称:
ONEWEB-0573
国际标识:
2023-004N
轨道中心:
EARTH
卫星名称:
一网星座-0573星
卫星全名:
一网星座-0573星 (ONEWEB-0573)
卫星状态:
在轨 (已飞行1208 天)
发射日期:
2023-01-10 UTC
国别 :
英国 (GB)
星等 :
--
轨道信息
数据来源 国际轨道数据 AOE轨道数据
星历时间 2026-05-02T11:12:40+0800
6小时前
查看轨道信息
2026-05-01T23:00:00+0800
18小时前
查看轨道信息
半长轴 7568.132km 7568.209km
偏心率 0.0001021 0.0001835
轨道倾角 87.918° 87.917°
近地点辐角 77.770° 41.945°
升交点赤经 344.635° 344.734°
平近点角 282.354° 64.158°
近地点 1189.222km 1188.683km
远地点 1190.768km 1191.461km
周期 109.205分钟 109.207分钟
每日圈数 13.186202 13.186002
详细信息
平衡模式:
三轴稳定
覆盖范围:
全球
运营商:
一网卫星公司
运营商所在国:
英国
制造商(研发单位):
一网卫星公司
制造商所在国:
英国
使用方式:
暂无
卫星简介
OneWeb卫星网络由648颗重约125公斤的微型卫星组成,运行在1200公里的轨道上。 每颗卫星都能够提供至少每秒8千兆位的吞吐量,以使用其高吞吐量的Ku频段有效载荷为家庭和移动平台提供互联网接入。该卫星仍在工作。
2D轨道图
3D轨道图
轨道高度分析图
轨道倾角分析图
轨道综合分析图
查看轨道综合分析图